#timestamp,LO_Frequency,Hit,StdDev 
1513512015.6,286047003.1,N
1513512035.4,286047004.3,N
1513512055.2,286047003.6,N
1513512075.1,286047001.7,N
1513512076.0,286047001.7,N
1513512095.8,286046998.4,N
1513512115.6,286047002.6,N
1513512135.5,286046998.2,N
1513512155.3,286046998.4,N
1513512175.1,286047005.8,N
1513512195.8,286047006.6,N
1513512215.7,286047005.2,N
1513512235.5,286047004.3,N
1513512255.3,286047002.2,N
1513512275.2,286047003.4,N
1513512295.9,286047006.7,N
1513512315.7,286047007.0,N
1513512335.6,286047006.3,N
1513512355.4,286047008.4,N
1513512375.2,286047005.7,N
1513512395.1,286047003.3,N
1513512396.0,286047003.3,N
1513512415.8,286047005.7,N
1513512435.6,286047004.1,N
1513512455.5,286047006.6,N
1513512475.3,286047007.8,N
1513512495.1,286047007.8,N
1513512515.8,286047003.0,N
1513512535.7,286047006.4,N
1513512555.5,286047008.3,Y
1513512575.4,286047003.9,P
1513512595.2,286047001.8,P
1513512615.0,286047005.3,P
1513512615.9,286047005.3,Y
1513512635.8,286047004.2,P
1513512655.6,286047003.0,P
1513512675.4,286047011.5,P
1513512695.3,286047010.8,Y
1513512715.1,286047005.4,P
1513512716.0,286047005.4,P
1513512735.8,286047002.9,P
1513512755.7,286046998.5,N
1513512775.5,286046998.9,N
1513512795.3,286047005.9,N
1513512815.1,286047008.6,N
1513512835.9,286047006.5,N
1513512855.7,286047015.6,Y
1513512875.5,286047011.1,P
1513512895.4,286047012.1,P
1513512915.2,286047015.5,P
1513512935.0,286047014.6,Y
1513512936.0,286047014.6,P
1513512955.8,286047004.8,N
1513512975.6,286047007.1,N
1513512995.4,286047006.5,N
1513513015.3,286047008.4,N
1513513035.1,286047011.1,Y
1513513055.8,286047001.3,P
1513513075.7,286046997.1,N
1513513095.5,286046997.8,N
1513513115.3,286047001.2,N
1513513135.2,286046996.1,N
1513513155.9,286046996.3,N
1513513175.7,286046993.8,N
1513513195.6,286046995.8,N
1513513215.4,286046994.6,N
1513513235.2,286046991.6,N
1513513255.1,286046989.9,N
1513513256.0,286046989.9,N
1513513275.8,286046988.7,N
1513513295.6,286046989.4,N
1513513315.5,286046986.1,N
1513513335.3,286046983.4,N
1513513355.1,286046986.6,N
1513513375.8,286046985.9,N
1513513395.7,286046987.2,N
1513513415.5,286046988.7,N
1513513435.3,286046989.7,N
1513513455.2,286046987.9,N
1513513475.9,286046986.4,N
1513513495.7,286046981.2,Y
1513513515.6,286046989.0,P
1513513535.4,286046992.6,P
1513513555.2,286046996.8,N
1513513575.1,286046997.3,N
1513513576.0,286046997.3,N
1513513595.8,286046996.4,N
1513513615.6,286046994.8,N
1513513635.5,286046992.3,N
1513513655.3,286046989.3,Y
1513513675.1,286046990.9,P
1513513695.9,286046985.6,P
1513513715.7,286046983.9,P
1513513735.5,286046989.2,N
1513513755.4,286046989.6,N
1513513775.2,286046985.5,Y
1513513795.0,286046992.2,P
1513513795.9,286046992.2,P
1513513815.8,286046991.7,P
1513513835.6,286046999.1,N
1513513855.4,286047001.7,N
1513513875.3,286047002.2,N
1513513895.1,286047005.9,N
1513513896.0,286047005.9,N
1513513915.8,286047000.7,N
1513513935.6,286047001.2,N
1513513955.5,286047001.1,N
1513513975.3,286046995.0,N
1513513995.1,286046993.0,N
1513514015.9,286046994.6,N
1513514035.7,286046992.8,N
1513514055.5,286046992.8,N
1513514075.4,286046989.4,N
1513514095.2,286046991.2,N
1513514115.0,286046987.1,N
1513514115.9,286046987.1,N
1513514135.8,286046990.2,N
1513514155.6,286046987.3,N
1513514175.4,286046982.5,N
1513514195.3,286046981.2,Y
1513514215.1,286046985.9,P
1513514216.0,286046985.9,P
1513514235.8,286046988.1,N
1513514255.7,286046992.2,N
1513514275.5,286046990.1,N
1513514295.3,286046992.8,N
1513514315.1,286046997.6,N
1513514335.9,286046994.5,N
1513514355.7,286046992.4,N
1513514375.5,286046997.1,N
1513514395.4,286046999.4,N
1513514415.2,286046992.4,N
1513514435.0,286046989.9,N
1513514435.9,286046989.9,N
1513514455.8,286046984.2,Y
1513514475.6,286046991.7,P
1513514495.4,286046994.8,P
1513514515.3,286046995.5,P
1513514535.1,286046997.6,N
1513514555.8,286046998.2,N
1513514575.7,286046996.6,N
1513514595.5,286046998.9,N
1513514615.3,286046999.5,N
1513514635.2,286046995.8,N
1513514655.9,286046997.9,N
1513514675.7,286046996.9,N
1513514695.5,286046998.1,N
1513514715.4,286046997.1,N
1513514735.2,286046996.8,N
1513514755.0,286046999.6,N
1513514755.9,286046999.6,N
1513514775.8,286046994.1,N
1513514795.6,286046992.7,Y
1513514815.4,286046995.0,P
1513514835.3,286046997.0,P
1513514855.1,286046995.8,P
1513514875.8,286046998.3,N
1513514895.7,286047003.7,Y
1513514915.5,286047008.6,P
1513514935.3,286047008.5,N
1513514955.2,286047006.2,N
1513514975.9,286047009.2,N
1513514995.7,286047007.1,N
1513515015.6,286047008.9,N
1513515035.4,286047008.3,N
1513515055.2,286047007.0,N
1513515075.1,286047005.7,N
1513515076.0,286047005.7,N
1513515095.8,286047004.1,N
1513515115.6,286047002.4,N
1513515135.5,286046997.8,N
1513515155.3,286046996.9,N
1513515175.1,286046996.7,N
1513515195.8,286046995.8,N
1513515215.7,286046994.2,N
1513515235.5,286046997.7,N
1513515255.3,286046994.9,N
1513515275.2,286046995.5,N
1513515295.9,286046999.2,N
1513515315.7,286046999.3,N
1513515335.6,286046999.7,N
1513515355.4,286046998.3,N
1513515375.2,286047001.1,N
1513515395.1,286046995.0,N
1513515396.0,286046995.0,N
1513515415.8,286046998.6,N
1513515435.6,286047000.7,N
1513515455.5,286046998.1,N
1513515475.3,286046996.5,N
1513515495.1,286046997.2,N
1513515515.8,286046999.0,N
1513515535.7,286046998.4,N
1513515555.5,286047001.2,N
1513515575.3,286046999.2,N
1513515595.2,286046997.7,N
